This is the latest recevied weather packets stored in our database for station/object N8RJC-13. If no packets are shown the sender has not sent any weather packets the latest 10 day(s).
| Time | Temp. | Humidity | Pressure | Rain* | Wind** | Luminosity | Snow |
|---|---|---|---|---|---|---|---|
| 1777588701 | 14.44° C | 46% | 991.6 hPa | 0 mm | 0.89 m/s, 293° | - | - |
| 1777588641 | 14.44° C | 46% | 991.6 hPa | 0 mm | 0.89 m/s, 293° | - | - |
| 1777588581 | 14.44° C | 46% | 991.6 hPa | 0 mm | 0.89 m/s, 293° | - | - |
| 1777588521 | 15° C | 51% | 991.7 hPa | 0 mm | 0.45 m/s, 345° | - | - |
| 1777588461 | 15° C | 51% | 991.7 hPa | 0 mm | 0.45 m/s, 345° | - | - |
| 1777588401 | 15° C | 51% | 991.7 hPa | 0 mm | 0.45 m/s, 345° | - | - |
| 1777588341 | 15° C | 51% | 991.7 hPa | 0 mm | 0.45 m/s, 345° | - | - |
| 1777588281 | 15° C | 51% | 991.7 hPa | 0 mm | 0.45 m/s, 345° | - | - |
| 1777588221 | 14.44° C | 47% | 991.6 hPa | 0 mm | 0.89 m/s, 357° | - | - |
| 1777588161 | 14.44° C | 47% | 991.6 hPa | 0 mm | 0.89 m/s, 357° | - | - |
| 1777588101 | 14.44° C | 47% | 991.6 hPa | 0 mm | 0.89 m/s, 357° | - | - |
| 1777588041 | 14.44° C | 47% | 991.6 hPa | 0 mm | 0.89 m/s, 357° | - | - |
| 1777587981 | 14.44° C | 47% | 991.6 hPa | 0 mm | 0.89 m/s, 357° | - | - |
| 1777587921 | 14.44° C | 50% | 991.5 hPa | 0 mm | 0.45 m/s, 296° | - | - |
| 1777587861 | 14.44° C | 50% | 991.5 hPa | 0 mm | 0.45 m/s, 296° | - | - |
| 1777587801 | 14.44° C | 50% | 991.5 hPa | 0 mm | 0.45 m/s, 296° | - | - |
| 1777587741 | 14.44° C | 50% | 991.5 hPa | 0 mm | 0.45 m/s, 296° | - | - |
| 1777587681 | 14.44° C | 50% | 991.5 hPa | 0 mm | 0.45 m/s, 296° | - | - |
| 1777587621 | 14.44° C | 47% | 991.6 hPa | 0 mm | 0.89 m/s, 289° | - | - |
| 1777587561 | 14.44° C | 47% | 991.6 hPa | 0 mm | 0.89 m/s, 289° | - | - |
| 1777587501 | 14.44° C | 47% | 991.6 hPa | 0 mm | 0.89 m/s, 289° | - | - |
| 1777587441 | 14.44° C | 47% | 991.6 hPa | 0 mm | 0.89 m/s, 289° | - | - |
| 1777587381 | 14.44° C | 47% | 991.6 hPa | 0 mm | 0.89 m/s, 289° | - | - |
| 1777587320 | 13.89° C | 48% | 991.8 hPa | 0 mm | 0.45 m/s, 75° | - | - |
| 1777587261 | 13.89° C | 48% | 991.8 hPa | 0 mm | 0.45 m/s, 75° | - | - |
* Rain latest hour (hover to see other rain measurements)
** Current wind speed in m/s (hover to see current wind gust speed)